SL-8 DEB, 1634

Orbit data source: Space-Track

SL-8 DEB, 1634 is space debris in LEO originally from a launch on Mon, 15 Mar 1965 UTC launched from the Tyuratam Missile And Space Complex (TTMTR). Debris objects in space refer to the collection of defunct objects orbiting the Earth. Examples of debris include non-operational satellites, rocket bodies, and fragments generated from explosions, collisions, or faulty payload assembly.

Loading next visibility...
SL-8 DEB details
Identifier
1634, 1965-020ED
Orbit
LEO
Last TLE update6 hours ago
Origin
Flag of CISRVSN (CIS)
ManufacturerUnknown
MissionSpacecraft
Bus & MotorUnknown
MassUnknown
Launch date (UTC)
1965-03-15 (60 years ago)
Launch vehicleUnknown
Launch site
Tyuratam Missile And Space Complex (TTMTR)
Object type
Payload
Rocket body
Debris
Shape & HBRUnknown
Radar Cross SectionSmall (<0.1 m²)

Expand to show TLE details & history

TLE from 6 hours ago
0 SL-8 DEB
1  1634U 65020ED  25018.72415145  .00000046  00000-0  26007-3 0  9990
2  1634  56.1543  24.6791 0854170 107.8075 261.7819 12.48278255698698
Epoch: 2025-01-18T17:22Z
Definitive object data (Epoch: 2025-01-18T17:22:46.685Z)
Latitude-0.00002°
Longitude5.61523°
Altitude1,623.479 km
Speed6.992 km/s
True Right ascension01h 38m 42s
True Declination0° 00' 00"
Sunlit
Object was in daylight at TLE epoch
Visualization TLE readout
Latitude28.53461°
Longitude163.61684°
Altitude917.388 km
Speed7.654 km/s
Apparent Right ascension12h 25m 18s
Apparent Declination-3° 03' 51"
Sunlit
Object is in full shadow
Visualization observer readout
Local Sidereal Time00:44:24
Azimuth7.92° NNE
Elevation-52.895°
Doppler factor1
Orbital elements
Apogee altitude2,142.006 km
Perigee altitude801.019 km
Semi-major axis7,849.65 km
Eccentricity0.085417
Inclination56.1543°
RAAN24.6791°
Arg. of periapsis107.8075°
True anomaly252.28366°
Mean anomaly261.7819°
Eccentric anomaly257.01305°
Mean motion3.12081 °/min
BSTAR0.00026007
Orbital period115.35 mins
Loading maneuver chart data...
Loading historical data...
Loading historical data...
Loading historical data...
Loading historical data...
Loading historical data...
Loading historical data...
Loading historical data...

SL-8 DEB Visibility forecast

Observer location: undefined°, undefined

Span
Click to sort rows by Start time (UTC) header in descending order
Start Az.
Max El. time (UTC)
Max El. Az.
Max El.
End time (UTC)
End Az.
10 mins2025-01-19 01:10:20.425Z171.316° S2025-01-19 01:16:20.425Z119.47° SE23.206°2025-01-19 01:20:20.425Z77.505° E
12 mins2025-01-19 03:09:20.425Z233.211° WSW2025-01-19 03:16:20.425Z348.254° N43.097°2025-01-19 03:21:20.425Z41.06° NE
7 mins2025-01-19 05:13:20.425Z298.627° NW2025-01-19 05:16:20.425Z332.371° NNW20.036°2025-01-19 05:20:20.425Z22.786° NE
4 mins2025-01-19 07:17:20.425Z348.037° N2025-01-19 07:19:20.425Z13.51° NNE14.988°2025-01-19 07:21:20.425Z37.816° NE
8 mins2025-01-19 09:17:20.425Z337.514° N2025-01-19 09:20:20.425Z34.204° NE33.006°2025-01-19 09:25:20.425Z104.603° ESE
8 mins2025-01-19 11:17:20.425Z283.406° WNW2025-01-19 11:20:20.425Z229.918° WSW29.925°2025-01-19 11:25:20.425Z170.98° S
|